Amsterdam, Netherlands

5:48 PM CET on December 10, 2019 (GMT +0100)
Schiphol

Weather History for EHAM - October, 2019

Change the Weather History Date:

Wednesday, October 2, 2019

  Actual Average Record
Temperature  
Mean Temperature 52 °F -  
Max Temperature 58 °F 55 °F 77 °F (2011)
Min Temperature 47 °F 45 °F 42 °F (1996)
Degree Days  
Heating Degree Days 12    
Growing Degree Days 2 (Base 50)    
Moisture  
Dew Point 45 °F    
Average Humidity 76    
Maximum Humidity 94    
Minimum Humidity 51    
Precipitation  
Precipitation 0.08 in - - ()
Sea Level Pressure  
Sea Level Pressure 29.85 in    
Wind  
Wind Speed 10 mph ()    
Max Wind Speed 24 mph    
Max Gust Speed 34 mph    
Visibility 7.8 miles    
Events Rain    
Averages and records for this station are not official NWS values.
T = Trace of Precipitation, MM = Missing Value Source: Averaged Metar Reports

Daily Weather History Graph

Daily Weather History Graph

Search for Another Location

Airport or City:

Astronomy

Oct. 02, 2019 Rise Set
Actual Time 7:42 AM CEST 7:16 PM CEST
Civil Twilight 7:09 AM CEST 7:50 PM CEST
Nautical Twilight 6:29 AM CEST 8:29 PM CEST
Astronomical Twilight 5:48 AM CEST 9:10 PM CEST
Moon 12:19 PM CEST (10/2) 9:28 PM CEST (10/2)
Length of Visible Light 12h 41m
Length of Day
11h 33m
Waxing Crescent, 18% of the Moon is Illuminated
Oct 2
Waxing Crescent
Oct 5
First Quarter
Oct 13
Full
Oct 21
Last Quarter
Oct 28
New

Hourly Weather History & Observations

Time (CEST) Temp. Dew Point Humidity Pressure Visibility Wind Dir Wind Speed Gust Speed Precip Events Conditions
12:25 AM 50.0 °F 48.2 °F 94% 29.59 in 6.2 mi NNE 11.5 mph - N/A Rain Light Rain
12:55 AM 51.8 °F 48.2 °F 88% 29.62 in 6.2 mi NNE 10.4 mph - N/A Rain Light Rain
1:00 AM 51 °F 48 °F 87% 29.63 in 25 mi NNE 8.9 mph - - Rain Light Rain Showers
1:25 AM 51.8 °F 48.2 °F 88% 29.62 in 6.2 mi North 8.1 mph - N/A   Mostly Cloudy
1:55 AM 51.8 °F 48.2 °F 88% 29.65 in 6.2 mi NNE 9.2 mph - N/A   Mostly Cloudy
2:00 AM 52 °F 48 °F 82% 29.66 in 25 mi North 6.7 mph - - Rain Rain
2:25 AM 51.8 °F 48.2 °F 88% 29.65 in 6.2 mi North 5.8 mph - N/A   Mostly Cloudy
2:55 AM 51.8 °F 48.2 °F 88% 29.65 in 6.2 mi NNW 4.6 mph - N/A   Partly Cloudy
3:25 AM 50.0 °F 48.2 °F 94% 29.65 in 6.2 mi NW 4.6 mph - N/A   Partly Cloudy
4:25 AM 51.8 °F 44.6 °F 76% 29.68 in 6.2 mi North 8.1 mph - N/A   Partly Cloudy
4:55 AM 50.0 °F 44.6 °F 82% 29.71 in 6.2 mi North 10.4 mph - N/A   Partly Cloudy
5:00 AM 50 °F 44 °F 74% 29.71 in 28 mi North 8.9 mph - - Rain Light Rain Showers
5:25 AM 50.0 °F 42.8 °F 76% 29.71 in 6.2 mi North 8.1 mph - N/A   Partly Cloudy
5:55 AM 48.2 °F 42.8 °F 82% 29.71 in 6.2 mi NNW 5.8 mph - N/A   Partly Cloudy
6:00 AM 47 °F 44 °F 83% 29.73 in 28 mi NW 4.5 mph - - Rain Rain
6:25 AM 48.2 °F 44.6 °F 87% 29.74 in 6.2 mi WNW 6.9 mph - N/A   Scattered Clouds
6:55 AM 50.0 °F 44.6 °F 82% 29.74 in 6.2 mi North 8.1 mph - N/A Rain Light Rain Showers
7:00 AM 49 °F 44 °F 76% 29.75 in 28 mi North 6.7 mph - - Rain Rain
7:25 AM 50.0 °F 42.8 °F 76% 29.74 in 6.2 mi North 4.6 mph - N/A   Partly Cloudy
7:55 AM 48.2 °F 44.6 °F 87% 29.77 in 6.2 mi NW 6.9 mph - N/A Rain Light Rain Showers
8:00 AM 49 °F 43 °F 72% 29.78 in 11 mi NNW 6.7 mph - - Rain Heavy Rain
8:25 AM 50.0 °F 44.6 °F 82% 29.77 in 6.2 mi NNW 5.8 mph - N/A Rain Light Rain Showers
8:55 AM 51.8 °F 44.6 °F 76% 29.80 in 6.2 mi North 4.6 mph - N/A Rain Light Rain Showers
9:00 AM 51 °F 44 °F 71% 29.81 in 22 mi North 4.5 mph - - Rain Light Rain Showers
9:25 AM 51.8 °F 44.6 °F 76% 29.80 in 6.2 mi North 5.8 mph - N/A   Partly Cloudy
9:55 AM 53.6 °F 42.8 °F 67% 29.80 in 6.2 mi North 4.6 mph - N/A   Partly Cloudy
10:00 AM 53 °F 44 °F 62% 29.83 in 25 mi North 4.5 mph - - Rain Rain
10:25 AM 53.6 °F 42.8 °F 67% 29.83 in 6.2 mi WNW 3.5 mph - N/A Rain Light Rain Showers
10:55 AM 55.4 °F 42.8 °F 63% 29.83 in 6.2 mi NNW 8.1 mph - N/A Rain Light Rain Showers
11:25 AM 53.6 °F 39.2 °F 58% 29.86 in 6.2 mi NW 8.1 mph - N/A Rain Light Rain Showers
11:55 AM 51.8 °F 44.6 °F 76% 29.86 in 6.2 mi WNW 16.1 mph - N/A Rain Light Rain Showers
12:00 PM 54 °F 44 °F 58% 29.88 in 10 mi NW 15.7 mph - - Rain Light Rain Showers
12:25 PM 57.2 °F 42.8 °F 59% 29.86 in 6.2 mi NW 16.1 mph - N/A   Partly Cloudy
12:55 PM 51.8 °F 42.8 °F 71% 29.89 in 4.3 mi WNW 23.0 mph 34.5 mph N/A Rain Rain Showers
1:00 PM 50 °F 43 °F 70% 29.91 in 6 mi NW 22.4 mph - - Rain Light Rain Showers
1:25 PM 51.8 °F 44.6 °F 76% 29.89 in 6.2 mi NNW 5.8 mph - N/A   Scattered Clouds
1:55 PM 55.4 °F 44.6 °F 67% 29.89 in 6.2 mi NW 20.7 mph - N/A   Partly Cloudy
2:00 PM 56 °F 45 °F 57% 29.90 in 17 mi NW 22.4 mph - - Rain Rain
2:25 PM 57.2 °F 44.6 °F 63% 29.89 in 6.2 mi NW 15.0 mph 26.5 mph N/A Rain Light Rain Showers
2:55 PM 59.0 °F 46.4 °F 63% 29.89 in 6.2 mi NW 17.3 mph - N/A   Partly Cloudy
3:00 PM 56 °F 43 °F 51% 29.91 in 16 mi NW 20.1 mph - -   Partly Cloudy
3:25 PM 53.6 °F 44.6 °F 72% 29.92 in 6.2 mi NW 24.2 mph - N/A Rain Light Rain Showers
3:55 PM 50.0 °F 44.6 °F 82% 29.92 in 6.2 mi NW 21.9 mph - N/A Rain Light Rain Showers
4:25 PM 51.8 °F 44.6 °F 76% 29.95 in 6.2 mi NNW 12.7 mph - N/A Rain Light Rain Showers
4:55 PM 55.4 °F 48.2 °F 77% 29.95 in 6.2 mi WNW 12.7 mph - N/A Rain Light Rain Showers
5:00 PM 55 °F 46 °F 63% 29.94 in 17 mi WNW 13.4 mph - - Rain Light Rain
5:25 PM 51.8 °F 46.4 °F 82% 29.95 in 6.2 mi West 13.8 mph - N/A   Partly Cloudy
5:55 PM 53.6 °F 46.4 °F 77% 29.95 in 6.2 mi NW 20.7 mph - N/A   Partly Cloudy
6:00 PM 53 °F 46 °F 68% 29.96 in 15 mi NW 22.4 mph - - Rain Rain
6:25 PM 51.8 °F 46.4 °F 82% 29.95 in 6.2 mi WNW 18.4 mph - N/A   Partly Cloudy
6:55 PM 51.8 °F 46.4 °F 82% 29.95 in 6.2 mi NW 12.7 mph - N/A Rain Light Rain Showers
7:00 PM 52 °F 48 °F 80% 29.97 in 17 mi NW 15.7 mph - - Rain Light Rain Showers
7:25 PM 50.0 °F 46.4 °F 87% 29.95 in 6.2 mi NW 12.7 mph - N/A   Partly Cloudy
7:55 PM 51.8 °F 46.4 °F 82% 29.98 in 6.2 mi NW 13.8 mph - N/A   Partly Cloudy
8:00 PM 51 °F 47 °F 81% 29.98 in 15 mi NW 13.4 mph - - Rain Light Rain Showers
8:25 PM 50.0 °F 46.4 °F 87% 29.98 in 6.2 mi North 6.9 mph - N/A Rain Light Rain Showers
8:55 PM 50.0 °F 46.4 °F 87% 29.98 in 6.2 mi WNW 6.9 mph - N/A   Partly Cloudy
9:00 PM 50 °F 46 °F 81% 30.00 in 17 mi WNW 6.7 mph - - Rain Rain
9:25 PM 50.0 °F 44.6 °F 82% 29.98 in 6.2 mi WNW 6.9 mph - N/A   Partly Cloudy
9:55 PM 51.8 °F 46.4 °F 82% 30.01 in 6.2 mi WNW 13.8 mph - N/A Rain Light Rain Showers
10:25 PM 51.8 °F 46.4 °F 82% 30.01 in 6.2 mi NW 11.5 mph - N/A   Partly Cloudy
10:55 PM 51.8 °F 44.6 °F 76% 30.01 in 6.2 mi NW 12.7 mph - N/A Rain Light Rain Showers
11:00 PM 52 °F 44 °F 68% 30.04 in 19 mi NW 15.7 mph - - Rain Rain
11:25 PM 51.8 °F 44.6 °F 76% 30.04 in 6.2 mi WNW 12.7 mph - N/A Rain Light Rain Showers
11:55 PM 50.0 °F 42.8 °F 76% 30.04 in 6.2 mi WNW 6.9 mph - N/A   Partly Cloudy